Der Flugplatz Krefeld-Egelsberg
  • ICAO-Code: EDLK
  • Koordinaten: N 51° 23,10'    E 06° 35,26'
  • Höhe ü. NN: 141 ft / 43 m
  • Platzfrequenz: 120.675 MHz - Krefeld Info
  • Landebahn: 06 - 24
  • Abmessungen: 640 x 30m
  • Belag: Gras
  • Tragfähigkeit: 2000 kg MTW; HEL 5700 kg MTW
  • Tankstelle: Nein
  • Betriebszeit: PPR
  • PPR-Request: Tel: 02151/ 560133, 368400
  • Landegebühr: Private Flüge 5 €, für gewerbliche Flüge wird eine gesonderte Gebühr erhoben

 

Wetterinformation

[Quelle: ADDS]
METAR
EDDL 220550Z 03002KT CAVOK 03/03 Q1031 NOSIG =
EDDL 220500Z 2206/2312 VRB02KT 4000 BR NSC TEMPO 2206/2207 2000 BR BECMG 2207/2209 18005KT CAVOK BECMG 2218/2221 VRB02KT BECMG 2307/2310 32005KT PROB30 TEMPO 2307/2310 BKN012
TAF
EDDL 220500Z 2206/2312 VRB02KT 4000 BR NSC TEMPO 2206/2207 2000 BR BECMG 2207/2209 18005KT CAVOK BECMG 2218/2221 VRB02KT BECMG 2307/2310 32005KT PROB30 TEMPO 2307/2310 BKN012 =
Lade Webcam-Bild
Cookies erleichtern die Bereitstellung unserer Dienste. Mit der Nutzung unserer Dienste erklären Sie sich damit einverstanden, dass wir Cookies verwenden.